MRN77 LSZB-LFLY

Flight info

Callsign MRN77
Flight time 0h 40m
Altitude 13000
Route AMRID Z144 ESEVA/N0271F140 Z669 MILPA
Aircraft TBM8/L-SDFGRWY/S

Departure

Time 2026-04-22 13:37
Airport Bern Airport (LSZB)

Arrival

Time 2026-04-22 14:17
Airport Lyon Bron Airport (LFLY)
Time Latitude Longitude Altitude Speed Heading
2026-04-22 13:27 46.91117 7.50305 1678 ft 0 kts 54°
2026-04-22 13:34 46.91105 7.50303 1685 ft 8 kts 304°
2026-04-22 13:34 46.91088 7.50271 1680 ft 5 kts 162°
2026-04-22 13:34 46.91070 7.50290 1684 ft 1 kts 143°
2026-04-22 13:34 46.91052 7.50309 1680 ft 10 kts 144°
2026-04-22 13:35 46.90977 7.50338 1678 ft 9 kts 176°
2026-04-22 13:35 46.90918 7.50345 1676 ft 11 kts 173°
2026-04-22 13:35 46.90836 7.50425 1676 ft 18 kts 140°
2026-04-22 13:35 46.90748 7.50538 1681 ft 10 kts 116°
2026-04-22 13:36 46.90716 7.50571 1675 ft 9 kts 266°
2026-04-22 13:36 46.90736 7.50538 1674 ft 0 kts 321°
2026-04-22 13:36 46.90827 7.50442 1676 ft 43 kts 323°
2026-04-22 13:36 46.91194 7.49967 1687 ft 95 kts 326°
2026-04-22 13:37 46.91767 7.49251 1801 ft 124 kts 330°
2026-04-22 13:37 46.92514 7.48477 2082 ft 141 kts 336°
2026-04-22 13:37 46.93381 7.47701 2371 ft 148 kts 337°
2026-04-22 13:37 46.94276 7.46837 2704 ft 158 kts 330°
2026-04-22 13:38 46.95050 7.45648 3208 ft 161 kts 316°
2026-04-22 13:38 46.95031 7.42429 4229 ft 180 kts 231°
2026-04-22 13:38 46.94476 7.41135 4718 ft 180 kts 248°
2026-04-22 13:39 46.94257 7.39741 5184 ft 180 kts 265°
2026-04-22 13:39 46.94091 7.37926 5773 ft 179 kts 264°
2026-04-22 13:39 46.93904 7.36141 6427 ft 178 kts 261°
2026-04-22 13:39 46.93720 7.34383 6918 ft 185 kts 262°
2026-04-22 13:40 46.93478 7.32602 7424 ft 187 kts 251°
2026-04-22 13:40 46.92873 7.30933 7918 ft 187 kts 236°
2026-04-22 13:40 46.92167 7.29335 8442 ft 187 kts 237°
2026-04-22 13:40 46.91474 7.27712 8955 ft 189 kts 237°
2026-04-22 13:41 46.90787 7.26072 9484 ft 190 kts 237°
2026-04-22 13:41 46.90096 7.24429 10005 ft 190 kts 237°
2026-04-22 13:41 46.89395 7.22782 10501 ft 191 kts 237°
2026-04-22 13:41 46.88676 7.21099 10960 ft 194 kts 237°
2026-04-22 13:42 46.87958 7.19419 11389 ft 196 kts 237°
2026-04-22 13:42 46.87232 7.17717 11843 ft 198 kts 237°
2026-04-22 13:42 46.86501 7.15999 12299 ft 200 kts 237°
2026-04-22 13:42 46.85796 7.14329 12723 ft 203 kts 237°
2026-04-22 13:43 46.85041 7.12564 13060 ft 212 kts 237°
2026-04-22 13:43 46.84264 7.10721 13108 ft 230 kts 238°
2026-04-22 13:43 46.83411 7.08654 13133 ft 245 kts 239°
2026-04-22 13:43 46.82509 7.06476 13141 ft 256 kts 238°
2026-04-22 13:44 46.81608 7.04322 13149 ft 262 kts 238°
2026-04-22 13:44 46.80631 7.02042 13157 ft 267 kts 236°
2026-04-22 13:44 46.79545 6.99821 13144 ft 271 kts 232°
2026-04-22 13:44 46.78360 6.97673 13145 ft 272 kts 231°
2026-04-22 13:45 46.77167 6.95514 13149 ft 274 kts 231°
2026-04-22 13:45 46.75967 6.93349 13145 ft 275 kts 231°
2026-04-22 13:45 46.74815 6.91275 13141 ft 275 kts 231°
2026-04-22 13:45 46.73615 6.89113 13143 ft 275 kts 231°
2026-04-22 13:46 46.72412 6.86946 13136 ft 275 kts 231°
2026-04-22 13:46 46.71210 6.84785 13128 ft 274 kts 231°
2026-04-22 13:46 46.70013 6.82629 13131 ft 273 kts 232°
2026-04-22 13:46 46.68890 6.80545 13136 ft 272 kts 232°
2026-04-22 13:47 46.67774 6.78456 13144 ft 272 kts 232°
2026-04-22 13:47 46.66659 6.76366 13134 ft 271 kts 233°
2026-04-22 13:47 46.65598 6.74145 13133 ft 271 kts 238°
2026-04-22 13:47 46.64619 6.71766 13132 ft 271 kts 241°
2026-04-22 13:48 46.63679 6.69388 13122 ft 271 kts 241°
2026-04-22 13:48 46.62738 6.67014 13116 ft 271 kts 241°
2026-04-22 13:48 46.61796 6.64642 13105 ft 270 kts 241°
2026-04-22 13:48 46.60857 6.62284 13102 ft 269 kts 241°
2026-04-22 13:49 46.59914 6.59932 13099 ft 269 kts 241°
2026-04-22 13:49 46.58974 6.57592 13102 ft 268 kts 241°
2026-04-22 13:49 46.58031 6.55255 13097 ft 267 kts 241°
2026-04-22 13:49 46.57092 6.52926 13099 ft 267 kts 241°
2026-04-22 13:50 46.56155 6.50603 13095 ft 267 kts 242°
2026-04-22 13:50 46.55586 6.49192 13096 ft 266 kts 241°
2026-04-22 13:50 46.54788 6.47213 13092 ft 264 kts 241°
2026-04-22 13:50 46.53850 6.44902 13093 ft 266 kts 241°
2026-04-22 13:51 46.52942 6.42659 13092 ft 267 kts 242°
2026-04-22 13:51 46.52003 6.40327 13101 ft 268 kts 242°
2026-04-22 13:51 46.51063 6.37990 13107 ft 268 kts 242°
2026-04-22 13:51 46.50120 6.35650 13116 ft 269 kts 242°
2026-04-22 13:52 46.49174 6.33310 13117 ft 269 kts 242°
2026-04-22 13:52 46.48230 6.30967 13115 ft 269 kts 242°
2026-04-22 13:52 46.47283 6.28630 13116 ft 269 kts 242°
2026-04-22 13:52 46.46332 6.26298 13113 ft 268 kts 242°
2026-04-22 13:53 46.45383 6.23968 13115 ft 268 kts 243°
2026-04-22 13:53 46.44437 6.21643 13124 ft 268 kts 243°
2026-04-22 13:53 46.43490 6.19327 13133 ft 267 kts 243°
2026-04-22 13:53 46.42574 6.17088 13117 ft 267 kts 243°
2026-04-22 13:54 46.41632 6.14779 13108 ft 266 kts 243°
2026-04-22 13:54 46.40693 6.12483 13087 ft 264 kts 243°
2026-04-22 13:54 46.39787 6.10275 13079 ft 263 kts 243°
2026-04-22 13:54 46.38854 6.08006 13088 ft 262 kts 243°
2026-04-22 13:55 46.37920 6.05743 13096 ft 262 kts 243°
2026-04-22 13:55 46.36989 6.03484 13107 ft 262 kts 243°
2026-04-22 13:55 46.36061 6.01218 13122 ft 262 kts 243°
2026-04-22 13:55 46.35132 5.98942 13128 ft 262 kts 243°
2026-04-22 13:56 46.34200 5.96669 13126 ft 263 kts 243°
2026-04-22 13:56 46.33267 5.94394 13101 ft 263 kts 243°
2026-04-22 13:56 46.32334 5.92125 13104 ft 262 kts 243°
2026-04-22 13:56 46.31402 5.89867 13103 ft 261 kts 243°
2026-04-22 13:57 46.30546 5.87557 13121 ft 260 kts 249°
2026-04-22 13:57 46.29852 5.85117 13120 ft 259 kts 253°
2026-04-22 13:57 46.29236 5.82708 13111 ft 259 kts 254°
2026-04-22 13:57 46.28630 5.80256 13117 ft 259 kts 255°
2026-04-22 13:58 46.28229 5.78600 13112 ft 259 kts 255°
2026-04-22 13:58 46.27461 5.75320 12655 ft 267 kts 256°
2026-04-22 13:58 46.26877 5.72764 12331 ft 269 kts 255°
2026-04-22 13:58 46.26275 5.70198 11998 ft 269 kts 255°
2026-04-22 13:59 46.25665 5.67644 11664 ft 269 kts 254°
2026-04-22 13:59 46.25052 5.65092 11337 ft 269 kts 254°
2026-04-22 13:59 46.24441 5.62541 11018 ft 268 kts 254°
2026-04-22 13:59 46.23847 5.60088 10711 ft 267 kts 254°
2026-04-22 14:00 46.23236 5.57560 10383 ft 266 kts 253°
2026-04-22 14:00 46.22628 5.55041 10070 ft 265 kts 253°
2026-04-22 14:00 46.22025 5.52526 9721 ft 264 kts 253°
2026-04-22 14:00 46.21412 5.50026 9389 ft 263 kts 253°
2026-04-22 14:01 46.20818 5.47562 9061 ft 258 kts 252°
2026-04-22 14:01 46.20224 5.45144 8740 ft 254 kts 252°
2026-04-22 14:01 46.19641 5.42754 8417 ft 251 kts 252°
2026-04-22 14:01 46.19059 5.40383 8079 ft 250 kts 252°
2026-04-22 14:02 46.18295 5.38156 7709 ft 249 kts 232°
2026-04-22 14:02 46.16910 5.36703 7341 ft 249 kts 206°
2026-04-22 14:02 46.15336 5.35699 7034 ft 245 kts 205°
2026-04-22 14:02 46.13810 5.34745 7016 ft 235 kts 203°
2026-04-22 14:03 46.12311 5.33899 6997 ft 228 kts 201°
2026-04-22 14:03 46.10958 5.33157 6981 ft 225 kts 201°
2026-04-22 14:03 46.09482 5.32355 6777 ft 230 kts 202°
2026-04-22 14:03 46.08105 5.31576 6546 ft 233 kts 202°
2026-04-22 14:04 46.06593 5.30702 6291 ft 235 kts 202°
2026-04-22 14:04 46.05071 5.29845 6009 ft 235 kts 201°
2026-04-22 14:04 46.03546 5.29002 5731 ft 235 kts 201°
2026-04-22 14:04 46.02022 5.28151 5487 ft 235 kts 201°
2026-04-22 14:05 46.00558 5.27348 5285 ft 234 kts 201°
2026-04-22 14:05 45.99036 5.26509 5058 ft 234 kts 200°
2026-04-22 14:05 45.95997 5.24854 4674 ft 233 kts 201°
2026-04-22 14:06 45.94481 5.24032 4495 ft 232 kts 201°
2026-04-22 14:06 45.93054 5.23240 4289 ft 232 kts 201°
2026-04-22 14:06 45.91559 5.22423 4043 ft 231 kts 202°
2026-04-22 14:06 45.90062 5.21596 3748 ft 230 kts 202°
2026-04-22 14:07 45.88568 5.20774 3460 ft 230 kts 202°
2026-04-22 14:07 45.87081 5.19950 3199 ft 228 kts 202°
2026-04-22 14:07 45.85603 5.19164 3030 ft 223 kts 202°
2026-04-22 14:07 45.84241 5.18447 3001 ft 211 kts 202°
2026-04-22 14:08 45.82893 5.17734 3005 ft 200 kts 201°
2026-04-22 14:08 45.81622 5.17068 2980 ft 190 kts 201°
2026-04-22 14:08 45.80398 5.16434 2976 ft 184 kts 201°
2026-04-22 14:08 45.79209 5.15815 2974 ft 180 kts 201°
2026-04-22 14:09 45.78085 5.15208 2985 ft 179 kts 202°
2026-04-22 14:09 45.76929 5.14570 2970 ft 177 kts 202°
2026-04-22 14:09 45.75779 5.13939 2973 ft 177 kts 201°
2026-04-22 14:09 45.74629 5.13316 2962 ft 177 kts 202°
2026-04-22 14:10 45.73481 5.12691 2963 ft 175 kts 202°
2026-04-22 14:10 45.72422 5.12105 2960 ft 163 kts 202°
2026-04-22 14:10 45.71393 5.11550 2952 ft 154 kts 201°
2026-04-22 14:10 45.70401 5.11030 2951 ft 148 kts 201°
2026-04-22 14:11 45.69466 5.10548 2944 ft 139 kts 200°
2026-04-22 14:11 45.68565 5.10090 2950 ft 136 kts 200°
2026-04-22 14:11 45.67708 5.09635 2953 ft 136 kts 201°
2026-04-22 14:11 45.66855 5.09167 2961 ft 136 kts 201°
2026-04-22 14:12 45.65969 5.08679 2965 ft 137 kts 201°
2026-04-22 14:12 45.65068 5.08189 2968 ft 137 kts 200°
2026-04-22 14:12 45.64192 5.07714 2968 ft 136 kts 201°
2026-04-22 14:12 45.63315 5.07175 2971 ft 134 kts 215°
2026-04-22 14:13 45.62987 5.06535 3041 ft 129 kts 255°
2026-04-22 14:13 45.63120 5.04768 2809 ft 143 kts 293°
2026-04-22 14:13 45.63412 5.03923 2756 ft 143 kts 300°
2026-04-22 14:13 45.63980 5.02731 2570 ft 143 kts 310°
2026-04-22 14:14 45.64650 5.01704 2482 ft 140 kts 319°
2026-04-22 14:14 45.65353 5.00750 2401 ft 136 kts 317°
2026-04-22 14:14 45.65960 4.99818 2447 ft 132 kts 314°
2026-04-22 14:14 45.66570 4.98844 2468 ft 131 kts 314°
2026-04-22 14:15 45.67205 4.97855 2311 ft 137 kts 315°
2026-04-22 14:15 45.67914 4.96988 1951 ft 128 kts 328°
2026-04-22 14:15 45.68636 4.96352 1604 ft 113 kts 337°
2026-04-22 14:15 45.69239 4.95973 1423 ft 93 kts 342°
2026-04-22 14:16 45.69839 4.95674 1277 ft 90 kts 345°
2026-04-22 14:16 45.70409 4.95422 1079 ft 82 kts 346°
2026-04-22 14:16 45.70969 4.95169 962 ft 87 kts 347°
2026-04-22 14:16 45.71534 4.94936 802 ft 81 kts 347°
2026-04-22 14:17 45.72038 4.94716 690 ft 77 kts 346°
2026-04-22 14:17 45.72515 4.94517 647 ft 63 kts 346°
2026-04-22 14:17 45.72799 4.94393 648 ft 23 kts 342°
2026-04-22 14:17 45.72945 4.94330 650 ft 27 kts 347°
2026-04-22 14:18 45.72988 4.94205 650 ft 11 kts 269°
2026-04-22 14:18 45.72988 4.94103 649 ft 15 kts 271°
2026-04-22 14:18 45.73031 4.93990 649 ft 14 kts 346°
2026-04-22 14:18 45.73074 4.93894 649 ft 16 kts 253°
2026-04-22 14:19 45.73063 4.93844 649 ft 0 kts 254°